TimeCEST,TemperatureF,Dew PointF,Humidity,Sea Level PressureIn,VisibilityMPH,Wind Direction,Wind SpeedMPH,Gust SpeedMPH,PrecipitationIn,Events,Conditions,WindDirDegrees,DateUTC
12:00 AM,51,46,79,30.09,12,West,2.2,,,,,280,2013-06-14 22:00:00
12:20 AM,48.2,44.6,87,30.09,6.2,North,2.3,-,N/A,,Unknown,350,2013-06-14 22:20:00
12:50 AM,48.2,44.6,87,30.09,6.2,WNW,3.5,-,N/A,,Unknown,300,2013-06-14 22:50:00
1:00 AM,49,46,86,30.09,11,WNW,2.2,,,,,290,2013-06-14 23:00:00
1:20 AM,46.4,42.8,87,30.09,6.2,Calm,Calm,-,N/A,,Unknown,0,2013-06-14 23:20:00
1:50 AM,46.4,42.8,87,30.09,6.2,Calm,Calm,-,N/A,,Unknown,0,2013-06-14 23:50:00
2:00 AM,49,46,84,30.08,9,Calm,Calm,,,,,,2013-06-15 00:00:00
2:20 AM,46.4,42.8,87,30.06,1.7,Calm,Calm,-,N/A,,Unknown,0,2013-06-15 00:20:00
2:50 AM,44.6,42.8,93,30.06,3.7,Calm,Calm,-,N/A,,Unknown,0,2013-06-15 00:50:00
3:00 AM,47,46,92,30.08,7,ESE,2.2,,,,Overcast,120,2013-06-15 01:00:00
3:20 AM,46.4,42.8,87,30.06,6.2,Calm,Calm,-,N/A,,Unknown,0,2013-06-15 01:20:00
3:50 AM,44.6,42.8,93,30.06,1.4,Calm,Calm,-,N/A,,Mist,0,2013-06-15 01:50:00
4:00 AM,46,44,91,30.08,5,SE,2.2,,,,Overcast,140,2013-06-15 02:00:00
4:20 AM,44.6,42.8,93,30.04,0.5,Calm,Calm,-,N/A,,Mist,0,2013-06-15 02:20:00
4:50 AM,44.6,41.0,87,30.04,0.4,Calm,Calm,-,N/A,,Mist,0,2013-06-15 02:50:00
5:20 AM,44.6,42.8,93,30.04,1.1,SSW,2.3,-,N/A,,Partly Cloudy,200,2013-06-15 03:20:00
5:50 AM,46.4,44.6,93,30.04,6.2,Calm,Calm,-,N/A,,Mostly Cloudy,0,2013-06-15 03:50:00
6:00 AM,46,45,96,30.06,11,SE,2.2,,,,Mostly Cloudy,140,2013-06-15 04:00:00
6:20 AM,48.2,46.4,93,30.04,6.2,Calm,Calm,-,N/A,,Mostly Cloudy,0,2013-06-15 04:20:00
6:50 AM,51.8,46.4,82,30.04,6.2,Calm,Calm,-,N/A,,Mostly Cloudy,0,2013-06-15 04:50:00
7:00 AM,50,47,86,30.03,11,SSE,4.5,,,,Partly Cloudy,150,2013-06-15 05:00:00
7:20 AM,53.6,48.2,82,30.04,6.2,South,3.5,-,N/A,,Mostly Cloudy,170,2013-06-15 05:20:00
7:50 AM,55.4,48.2,77,30.04,6.2,South,3.5,-,N/A,,Partly Cloudy,180,2013-06-15 05:50:00
8:00 AM,54,48,74,30.01,11,SSE,6.7,,,,Partly Cloudy,150,2013-06-15 06:00:00
8:20 AM,55.4,48.2,77,30.04,6.2,SSE,5.8,-,N/A,,Mostly Cloudy,150,2013-06-15 06:20:00
8:50 AM,57.2,50.0,77,30.04,6.2,SSE,4.6,-,N/A,,Mostly Cloudy,150,2013-06-15 06:50:00
9:00 AM,56,49,71,30.00,16,SE,6.7,,,,Mostly Cloudy,140,2013-06-15 07:00:00
9:50 AM,62.6,51.8,68,30.01,6.2,SSE,8.1,-,N/A,,Scattered Clouds,160,2013-06-15 07:50:00
10:00 AM,61,50,59,29.97,16,South,6.7,,,,Mostly Cloudy,190,2013-06-15 08:00:00
10:20 AM,62.6,50.0,63,30.01,6.2,South,10.4,-,N/A,,Mostly Cloudy,190,2013-06-15 08:20:00
10:50 AM,60.8,50.0,68,30.01,6.2,SSW,10.4,-,N/A,,Mostly Cloudy,200,2013-06-15 08:50:00
11:20 AM,64.4,48.2,56,30.01,6.2,South,11.5,-,N/A,,Partly Cloudy,190,2013-06-15 09:20:00
11:50 AM,64.4,48.2,56,30.01,6.2,SSW,13.8,-,N/A,,Partly Cloudy,200,2013-06-15 09:50:00
12:00 PM,64,49,48,29.95,25,SSW,8.9,,,,Partly Cloudy,210,2013-06-15 10:00:00
12:20 PM,64.4,50.0,59,30.01,6.2,South,16.1,-,N/A,,Scattered Clouds,190,2013-06-15 10:20:00
12:50 PM,66.2,51.8,60,30.01,6.2,SSW,15.0,-,N/A,,Mostly Cloudy,210,2013-06-15 10:50:00
1:00 PM,65,53,56,29.94,31,SSW,8.9,,,,Mostly Cloudy,210,2013-06-15 11:00:00
1:20 PM,68.0,51.8,56,29.98,6.2,SSW,20.7,-,N/A,,Scattered Clouds,210,2013-06-15 11:20:00
1:50 PM,68.0,51.8,56,29.98,6.2,SSW,21.9,-,N/A,,Scattered Clouds,210,2013-06-15 11:50:00
2:00 PM,67,52,49,29.92,34,SW,11.2,,,,Mostly Cloudy,220,2013-06-15 12:00:00
2:20 PM,66.2,48.2,52,29.98,6.2,SW,16.1,-,N/A,,Scattered Clouds,220,2013-06-15 12:20:00
2:50 PM,69.8,48.2,46,29.98,-9999.0,SW,18.4,33.4,N/A,,Clear,220,2013-06-15 12:50:00
3:00 PM,69,52,43,29.91,31,WSW,15.7,,,,Partly Cloudy,240,2013-06-15 13:00:00
3:20 PM,68.0,50.0,52,29.98,-9999.0,SW,18.4,-,N/A,,Clear,220,2013-06-15 13:20:00
3:50 PM,68.0,50.0,52,29.98,-9999.0,SW,17.3,-,N/A,,Clear,220,2013-06-15 13:50:00
4:00 PM,68,52,45,29.91,31,SW,13.4,,,,Partly Cloudy,230,2013-06-15 14:00:00
4:20 PM,68.0,48.2,49,29.98,-9999.0,SW,15.0,-,N/A,,Clear,230,2013-06-15 14:20:00
4:50 PM,68.0,50.0,52,29.98,-9999.0,SW,15.0,-,N/A,,Clear,230,2013-06-15 14:50:00
5:20 PM,66.2,48.2,52,29.98,-9999.0,WSW,19.6,31.1,N/A,,Clear,240,2013-06-15 15:20:00
5:50 PM,66.2,48.2,52,29.98,-9999.0,SW,15.0,26.5,N/A,,Clear,230,2013-06-15 15:50:00
6:00 PM,67,52,48,29.91,37,SW,11.2,,,,Scattered Clouds,230,2013-06-15 16:00:00
6:20 PM,66.2,48.2,52,29.98,-9999.0,SW,12.7,-,N/A,,Clear,230,2013-06-15 16:20:00
6:50 PM,66.2,48.2,52,29.98,-9999.0,SW,13.8,-,N/A,,Clear,230,2013-06-15 16:50:00
7:00 PM,67,51,46,29.91,37,SW,11.2,,,,Scattered Clouds,230,2013-06-15 17:00:00
7:20 PM,66.2,48.2,52,29.98,6.2,SW,10.4,-,N/A,,Unknown,230,2013-06-15 17:20:00
7:50 PM,64.4,50.0,59,29.98,6.2,SW,9.2,-,N/A,,Unknown,220,2013-06-15 17:50:00
8:00 PM,65,52,52,29.93,44,SW,8.9,,,,Scattered Clouds,230,2013-06-15 18:00:00
8:20 PM,64.4,50.0,59,29.98,6.2,SSW,5.8,-,N/A,,Unknown,210,2013-06-15 18:20:00
8:50 PM,62.6,51.8,68,29.98,6.2,SSW,5.8,-,N/A,,Partly Cloudy,210,2013-06-15 18:50:00
9:00 PM,63,53,60,29.94,31,SW,4.5,,,,Overcast,220,2013-06-15 19:00:00
9:20 PM,62.6,51.8,68,30.01,6.2,SW,5.8,-,N/A,,Unknown,230,2013-06-15 19:20:00
9:50 PM,62.6,50.0,63,30.01,6.2,SW,6.9,-,N/A,,Unknown,230,2013-06-15 19:50:00
10:00 PM,62,53,63,29.96,12,WSW,4.5,,,,Overcast,240,2013-06-15 20:00:00
10:20 PM,60.8,50.0,68,30.01,6.2,SW,6.9,-,N/A,,Partly Cloudy,220,2013-06-15 20:20:00
10:50 PM,60.8,50.0,68,30.01,6.2,SSW,8.1,-,N/A,,Partly Cloudy,210,2013-06-15 20:50:00
11:20 PM,59.0,48.2,67,30.01,6.2,WSW,8.1,-,N/A,,Unknown,240,2013-06-15 21:20:00
11:50 PM,59.0,48.2,67,30.04,6.2,WSW,8.1,-,N/A,,Unknown,240,2013-06-15 21:50:00